TimeCST,TemperatureF,Dew PointF,Humidity,Sea Level PressureIn,VisibilityMPH,Wind Direction,Wind SpeedMPH,Gust SpeedMPH,PrecipitationIn,Events,Conditions,WindDirDegrees,DateUTC
12:11 AM,24.8,17.6,74,29.88,10.0,SSW,15.0,20.7,N/A,,Clear,210,2013-01-16 06:11:00
12:31 AM,24.8,17.6,74,29.87,10.0,SSW,17.3,24.2,N/A,,Clear,210,2013-01-16 06:31:00
12:52 AM,24.8,17.6,74,29.87,10.0,SSW,15.0,21.9,N/A,,Clear,210,2013-01-16 06:52:00
1:11 AM,24.8,17.6,74,29.85,10.0,SSW,11.5,20.7,N/A,,Clear,210,2013-01-16 07:11:00
1:31 AM,24.8,17.6,74,29.85,10.0,SW,12.7,19.6,N/A,,Clear,220,2013-01-16 07:31:00
1:52 AM,24.8,17.6,74,29.83,10.0,SSW,13.8,20.7,N/A,,Clear,200,2013-01-16 07:52:00
2:11 AM,24.8,17.6,74,29.81,10.0,SSW,12.7,23.0,N/A,,Clear,200,2013-01-16 08:11:00
2:31 AM,24.8,17.6,74,29.81,10.0,SW,17.3,21.9,N/A,,Clear,220,2013-01-16 08:31:00
2:52 AM,24.8,17.6,74,29.81,10.0,SW,11.5,20.7,N/A,,Clear,220,2013-01-16 08:52:00
3:11 AM,24.8,17.6,74,29.79,10.0,SSW,16.1,21.9,N/A,,Scattered Clouds,210,2013-01-16 09:11:00
3:31 AM,24.8,17.6,74,29.77,10.0,SSW,18.4,25.3,N/A,,Scattered Clouds,210,2013-01-16 09:31:00
3:52 AM,24.8,17.6,74,29.77,10.0,SW,12.7,20.7,N/A,,Overcast,220,2013-01-16 09:52:00
4:31 AM,26.6,19.4,74,29.75,10.0,SW,13.8,23.0,N/A,,Overcast,220,2013-01-16 10:31:00
4:52 AM,26.6,19.4,74,29.73,10.0,SSW,13.8,24.2,N/A,,Overcast,210,2013-01-16 10:52:00
5:11 AM,26.6,21.2,80,29.72,10.0,SW,13.8,25.3,N/A,,Overcast,220,2013-01-16 11:11:00
5:31 AM,26.6,21.2,80,29.72,10.0,SW,19.6,23.0,N/A,,Overcast,230,2013-01-16 11:31:00
5:51 AM,26.6,21.2,80,29.72,10.0,SW,13.8,20.7,N/A,,Overcast,230,2013-01-16 11:51:00
6:32 AM,26.6,23.0,86,29.73,10.0,WSW,11.5,18.4,N/A,,Overcast,240,2013-01-16 12:32:00
6:51 AM,26.6,24.8,93,29.73,4.0,WSW,10.4,19.6,N/A,Snow,Light Snow,240,2013-01-16 12:51:00
7:11 AM,26.6,24.8,93,29.74,4.0,WSW,11.5,17.3,N/A,Snow,Light Snow,240,2013-01-16 13:11:00
7:32 AM,26.6,24.8,93,29.73,5.0,WSW,10.4,17.3,N/A,,Overcast,240,2013-01-16 13:32:00
7:51 AM,28.4,26.6,93,29.73,10.0,WSW,11.5,18.4,N/A,,Overcast,240,2013-01-16 13:51:00
8:11 AM,28.4,26.6,93,29.73,10.0,SW,10.4,17.3,N/A,,Overcast,230,2013-01-16 14:11:00
8:32 AM,28.4,26.6,93,29.75,2.5,WSW,9.2,18.4,N/A,,Overcast,240,2013-01-16 14:32:00
8:51 AM,28.4,26.6,93,29.75,3.0,WSW,9.2,17.3,N/A,Snow,Light Snow,250,2013-01-16 14:51:00
9:11 AM,30.2,28.4,93,29.76,10.0,WSW,11.5,20.7,N/A,,Overcast,240,2013-01-16 15:11:00
9:32 AM,30.2,28.4,93,29.76,10.0,WSW,11.5,17.3,N/A,,Overcast,250,2013-01-16 15:32:00
9:51 AM,32.0,28.4,87,29.77,10.0,WSW,10.4,23.0,N/A,,Overcast,250,2013-01-16 15:51:00
10:11 AM,33.8,30.2,87,29.77,10.0,WSW,11.5,19.6,N/A,,Overcast,250,2013-01-16 16:11:00
10:32 AM,33.8,30.2,87,29.77,10.0,WSW,11.5,-,N/A,,Mostly Cloudy,250,2013-01-16 16:32:00
10:51 AM,37.4,32.0,81,29.77,10.0,West,12.7,18.4,N/A,,Mostly Cloudy,260,2013-01-16 16:51:00
11:11 AM,35.6,35.6,100,29.77,10.0,West,11.5,18.4,N/A,,Scattered Clouds,270,2013-01-16 17:11:00
11:32 AM,37.4,35.6,93,29.78,10.0,West,11.5,-,N/A,,Scattered Clouds,270,2013-01-16 17:32:00
11:51 AM,37.4,37.4,100,29.78,10.0,West,11.5,18.4,N/A,,Mostly Cloudy,270,2013-01-16 17:51:00
12:11 PM,37.4,37.4,100,29.79,10.0,West,9.2,16.1,N/A,,Overcast,270,2013-01-16 18:11:00
12:32 PM,39.2,37.4,93,29.78,10.0,West,6.9,-,N/A,,Overcast,280,2013-01-16 18:32:00
12:51 PM,39.2,37.4,93,29.77,10.0,WNW,12.7,18.4,N/A,,Scattered Clouds,290,2013-01-16 18:51:00
1:11 PM,39.2,35.6,87,29.77,10.0,West,11.5,16.1,N/A,,Mostly Cloudy,270,2013-01-16 19:11:00
1:32 PM,39.2,35.6,87,29.78,10.0,West,8.1,-,N/A,,Overcast,270,2013-01-16 19:32:00
2:11 PM,39.2,35.6,87,29.79,7.0,WNW,8.1,-,N/A,,Drizzle,290,2013-01-16 20:11:00
2:32 PM,39.2,35.6,87,29.80,7.0,WNW,10.4,-,N/A,,Drizzle,290,2013-01-16 20:32:00
2:51 PM,37.4,35.6,93,29.82,4.0,WNW,8.1,-,N/A,Rain,Light Rain,290,2013-01-16 20:51:00
3:11 PM,37.4,35.6,93,29.83,4.0,WNW,6.9,-,N/A,,Drizzle,300,2013-01-16 21:11:00
3:32 PM,37.4,35.6,93,29.84,7.0,WNW,6.9,-,N/A,,Overcast,300,2013-01-16 21:32:00
3:51 PM,37.4,35.6,93,29.86,3.0,NW,10.4,-,N/A,Rain,Rain,320,2013-01-16 21:51:00
4:32 PM,35.6,35.6,100,29.91,10.0,NNW,9.2,-,N/A,,Overcast,330,2013-01-16 22:32:00
4:51 PM,33.8,33.8,100,29.93,10.0,NNW,13.8,17.3,N/A,,Overcast,330,2013-01-16 22:51:00
5:11 PM,33.8,33.8,100,29.94,10.0,NNW,11.5,-,N/A,,Overcast,330,2013-01-16 23:11:00
5:32 PM,33.8,30.2,87,29.96,10.0,NNW,12.7,18.4,N/A,,Overcast,330,2013-01-16 23:32:00
5:51 PM,32.0,28.4,87,29.97,10.0,NNW,12.7,17.3,N/A,,Mostly Cloudy,330,2013-01-16 23:51:00
6:11 PM,30.2,26.6,86,29.99,10.0,NNW,13.8,21.9,N/A,,Scattered Clouds,340,2013-01-17 00:11:00
6:32 PM,30.2,26.6,86,30.01,10.0,NNW,11.5,16.1,N/A,,Clear,330,2013-01-17 00:32:00
6:51 PM,30.2,24.8,80,30.01,10.0,NNW,9.2,19.6,N/A,,Clear,340,2013-01-17 00:51:00
7:11 PM,30.2,26.6,86,30.03,10.0,NW,10.4,-,N/A,,Scattered Clouds,310,2013-01-17 01:11:00
7:32 PM,28.4,24.8,86,30.06,10.0,NW,15.0,23.0,N/A,,Scattered Clouds,320,2013-01-17 01:32:00
7:51 PM,26.6,24.8,93,30.08,10.0,NNW,9.2,17.3,N/A,,Clear,330,2013-01-17 01:51:00
8:11 PM,26.6,21.2,80,30.10,10.0,NNW,15.0,-,N/A,,Scattered Clouds,330,2013-01-17 02:11:00
8:32 PM,24.8,21.2,86,30.11,10.0,NNW,11.5,18.4,N/A,,Clear,330,2013-01-17 02:32:00
8:51 PM,24.8,19.4,80,30.12,10.0,NW,8.1,16.1,N/A,,Clear,320,2013-01-17 02:51:00
9:11 PM,21.2,15.8,80,30.13,10.0,NNW,12.7,18.4,N/A,,Clear,330,2013-01-17 03:11:00
9:32 PM,21.2,15.8,80,30.13,10.0,NNW,6.9,-,N/A,,Clear,330,2013-01-17 03:32:00
9:51 PM,21.2,15.8,80,30.13,10.0,NNW,10.4,17.3,N/A,,Clear,340,2013-01-17 03:51:00
10:11 PM,19.4,14.0,80,30.14,10.0,NNW,8.1,-,N/A,,Clear,330,2013-01-17 04:11:00
10:32 PM,19.4,12.2,74,30.15,10.0,NW,5.8,-,N/A,,Clear,310,2013-01-17 04:32:00
10:51 PM,19.4,14.0,80,30.15,10.0,NW,4.6,-,N/A,,Clear,310,2013-01-17 04:51:00
11:11 PM,17.6,14.0,86,30.17,10.0,NW,4.6,-,N/A,,Clear,310,2013-01-17 05:11:00
11:32 PM,17.6,12.2,79,30.18,10.0,NW,6.9,-,N/A,,Clear,310,2013-01-17 05:32:00
11:51 PM,17.6,12.2,79,30.19,10.0,NW,6.9,-,N/A,,Clear,320,2013-01-17 05:51:00